BAW16R EGLL-ELLX

Flight info

Callsign BAW16R
Flight time N/A
Altitude 35000
Route DET L6 DVR UL9 KONAN DCT KOK DCT REMBA
Aircraft A319/M-SDE3FGHIRWY/LB1

Departure

Time 2026-05-06 16:23
Airport London Heathrow Airport (EGLL)

Arrival

Time N/A
Airport Luxembourg-Findel International Airport (ELLX)
Time Latitude Longitude Altitude Speed Heading
2026-05-06 15:58 51.47213 -0.48045 86 ft 0 kts 270°
2026-05-06 15:58 51.47053 -0.48034 90 ft 0 kts 270°
2026-05-06 16:15 51.47053 -0.48023 89 ft 2 kts 270°
2026-05-06 16:15 51.47053 -0.47991 86 ft 3 kts 270°
2026-05-06 16:15 51.47053 -0.47958 86 ft 3 kts 270°
2026-05-06 16:16 51.47054 -0.47927 86 ft 3 kts 270°
2026-05-06 16:16 51.47055 -0.47896 86 ft 3 kts 245°
2026-05-06 16:16 51.47066 -0.47874 91 ft 3 kts 200°
2026-05-06 16:16 51.47079 -0.47870 86 ft 1 kts 180°
2026-05-06 16:17 51.47092 -0.47870 89 ft 2 kts 180°
2026-05-06 16:17 51.47095 -0.47870 88 ft 0 kts 180°
2026-05-06 16:19 51.47086 -0.47870 86 ft 5 kts 180°
2026-05-06 16:20 51.47024 -0.47869 86 ft 12 kts 180°
2026-05-06 16:20 51.46923 -0.47869 86 ft 17 kts 180°
2026-05-06 16:20 51.46794 -0.47868 86 ft 20 kts 180°
2026-05-06 16:20 51.46692 -0.47869 86 ft 11 kts 180°
2026-05-06 16:21 51.46655 -0.47971 86 ft 13 kts 270°
2026-05-06 16:21 51.46654 -0.48118 86 ft 10 kts 270°
2026-05-06 16:21 51.46623 -0.48213 87 ft 12 kts 194°
2026-05-06 16:21 51.46535 -0.48213 88 ft 13 kts 180°
2026-05-06 16:22 51.46480 -0.48168 89 ft 8 kts 78°
2026-05-06 16:22 51.46479 -0.48045 87 ft 25 kts 92°
2026-05-06 16:22 51.46481 -0.47426 86 ft 86 kts 90°
2026-05-06 16:22 51.46489 -0.46152 89 ft 142 kts 89°
2026-05-06 16:23 51.46498 -0.44556 663 ft 140 kts 84°
2026-05-06 16:23 51.46512 -0.42967 1275 ft 145 kts 83°
2026-05-06 16:23 51.46389 -0.41215 1600 ft 177 kts 110°
2026-05-06 16:23 51.45596 -0.39523 2023 ft 204 kts 129°
2026-05-06 16:24 51.44652 -0.37648 2574 ft 227 kts 121°
2026-05-06 16:24 51.43784 -0.35367 3215 ft 251 kts 114°
2026-05-06 16:24 51.43343 -0.32651 4076 ft 260 kts 95°
2026-05-06 16:24 51.43011 -0.29763 5175 ft 266 kts 99°
2026-05-06 16:25 51.42612 -0.26846 6246 ft 271 kts 100°
2026-05-06 16:25 51.42195 -0.23869 7212 ft 277 kts 101°
2026-05-06 16:25 51.41769 -0.20815 8167 ft 284 kts 100°
2026-05-06 16:25 51.41333 -0.17686 9105 ft 290 kts 101°